Wind_Speed
12 12 12 12 12 12 12 12 12 11 11 10 9 8 7 7 8 9 10 10 11 11 11 12 14 14 15 14 13 12 12 13 14 14 14 13 12 12 13 13 13 13 13
12 12 12 13 13 13 13 13 12 11 11 10 9 8 7 6 7 8 9 10 10 11 11 12 14 15 15 15 15 14 14 14 14 14 15 14 13 13 13 13 13 13 13
12 12 13 13 13 13 13 13 12 12 11 10 9 8 7 6 7 8 9 10 10 11 12 13 14 15 16 16 16 15 15 15 15 15 16 15 15 14 14 13 13 14 13
12 12 13 14 13 13 13 13 13 12 11 10 9 8 7 6 5 7 9 10 11 11 11 13 14 15 17 17 17 16 16 16 15 16 16 17 16 16 15 15 15 14 14
12 12 13 14 14 14 14 13 13 12 11 10 10 9 8 6 5 6 8 9 10 11 11 13 14 15 16 17 17 17 16 16 16 16 17 18 18 17 16 16 15 15 15
12 13 13 14 14 14 14 13 13 12 11 11 10 9 9 7 4 5 7 9 10 11 11 13 14 15 16 17 17 18 18 17 17 17 17 17 18 18 17 17 16 16 15
12 12 13 14 14 14 14 14 13 13 12 12 11 10 9 7 5 4 6 8 10 11 12 13 14 15 16 17 17 18 18 19 18 19 18 18 18 18 18 18 17 17 16
12 12 13 14 15 15 15 14 14 13 13 12 11 11 10 8 6 4 5 7 9 10 12 13 14 15 16 17 17 18 18 19 19 20 20 19 19 19 19 20 19 18 17
12 13 13 14 15 15 15 15 15 14 14 13 12 11 11 9 7 5 4 6 8 10 12 13 14 16 16 17 17 18 18 19 20 21 21 21 21 21 20 21 21 20 19
12 13 13 14 15 16 16 16 16 15 15 14 13 12 11 10 9 7 6 5 7 10 11 13 14 16 16 17 17 18 19 19 21 22 22 23 23 23 23 22 22 22 21
13 13 13 14 15 16 16 17 17 16 15 15 14 13 12 11 10 8 7 6 7 9 11 13 14 16 16 17 18 18 19 20 20 21 23 24 24 25 25 24 24 23 23
12 13 13 14 15 16 16 17 17 16 16 16 15 13 12 12 11 10 8 7 7 8 11 13 14 15 17 17 18 19 20 21 21 22 23 24 26 26 26 26 26 26 25
13 14 14 14 15 15 16 17 17 17 16 16 16 15 14 13 12 11 10 9 8 9 11 12 15 16 17 18 19 20 21 21 22 23 24 24 26 27 27 27 27 27 27
13 14 14 15 15 16 16 17 18 18 17 17 17 16 15 15 14 13 11 11 10 11 12 13 15 17 17 18 20 21 22 23 22 23 25 25 26 26 27 28 28 28 28
14 14 15 16 16 17 17 17 18 18 18 18 18 18 17 17 16 14 13 13 12 13 13 14 16 17 18 19 20 21 22 23 23 23 24 26 27 27 28 29 30 30 29
15 15 16 17 17 18 18 19 19 20 20 20 20 19 19 18 18 16 16 15 15 14 14 15 17 18 20 21 21 23 24 25 25 26 26 26 27 28 29 30 31 31 31
16 17 18 18 19 19 20 21 22 22 22 22 22 21 21 20 19 19 19 18 18 17 17 17 18 19 20 21 23 24 25 26 27 27 28 28 29 30 30 31 31 32 32
18 19 19 20 21 22 23 23 24 24 24 24 24 24 24 23 22 22 21 21 21 21 20 19 20 21 22 22 23 25 26 28 28 29 29 30 30 31 32 32 32 33 33
20 21 21 22 23 24 25 25 25 26 26 26 26 25 25 25 24 24 24 24 24 24 23 23 23 24 24 25 25 26 27 28 29 30 30 30 31 32 33 33 33 33 34
21 23 23 24 25 26 27 27 28 28 28 28 28 28 27 27 27 27 27 27 27 26 26 26 27 27 27 28 28 28 28 30 31 31 32 32 32 32 33 33 34 34 35
24 24 25 26 27 28 28 29 30 30 30 30 30 30 31 30 30 30 30 29 29 29 29 29 30 30 30 30 31 31 31 31 32 33 33 34 34 33 34 35 35 35 36
25 26 27 28 29 30 30 31 31 32 32 32 33 33 34 34 33 33 32 32 32 32 32 32 33 33 33 33 33 33 33 34 34 34 34 35 36 36 36 36 36 37 37
27 28 29 31 32 32 32 33 33 34 35 35 36 36 36 36 35 34 34 33 33 34 34 34 34 34 35 35 36 36 37 36 35 36 37 36 37 38 38 38 38 38 39
29 30 32 33 34 35 35 36 36 37 37 37 37 38 37 37 36 36 35 35 35 34 34 35 35 35 36 37 37 38 39 39 39 39 39 37 37 38 39 38 38 38 39
32 33 34 35 36 37 38 38 39 39 39 39 39 39 39 38 38 38 37 37 36 36 36 36 37 36 37 38 38 39 39 40 40 41 41 40 39 39 39 39 39 39 39
34 35 36 37 39 39 40 40 40 40 40 40 41 41 41 41 41 40 39 39 38 38 38 38 38 38 38 39 39 39 40 40 41 41 41 42 41 41 41 41 41 40 40
Wind_Direction
347 346 345 345 344 344 343 340 337 336 334 329 324 312 294 276 258 248 241 234 228 224 221 216 209 207 205 205 202 199 196 190 184 184 182 178 176 175 177 172 173 171 170
347 346 346 346 346 345 345 344 342 342 341 338 331 324 307 282 260 246 237 231 226 223 221 215 207 205 205 205 204 202 196 194 192 189 187 185 183 181 180 179 178 173 172
347 348 349 349 348 347 347 346 346 346 345 342 338 330 316 296 266 245 234 230 226 225 222 216 211 206 206 205 204 201 199 198 198 197 193 190 189 188 185 183 181 180 179
347 350 352 352 350 349 349 348 348 349 349 347 345 341 329 306 271 245 234 228 225 223 221 217 214 210 208 206 204 204 202 203 203 201 198 197 196 194 190 188 188 187 186
348 351 351 352 353 353 352 352 352 352 351 349 347 346 341 323 284 249 235 230 225 223 222 217 215 214 211 211 208 206 205 206 206 204 202 202 201 198 194 192 192 192 191
350 353 354 354 354 355 355 356 356 356 355 353 351 350 347 336 297 258 241 233 227 225 223 219 216 216 215 214 213 210 209 209 210 209 206 204 202 200 199 197 196 196 197
353 355 357 356 356 356 357 358 358 357 356 354 353 352 351 345 325 278 251 238 231 228 225 223 223 221 218 216 216 213 214 214 214 213 211 208 205 205 205 202 203 203 203
353 356 359 359 359 359 359 360 359 358 356 353 352 351 350 347 338 306 267 246 235 230 227 226 226 223 220 219 220 217 218 218 217 216 216 214 212 212 211 209 207 208 208
355 357 358 359 0 0 0 359 357 356 354 351 348 347 347 347 341 325 290 260 242 234 230 227 226 223 222 222 221 219 220 221 219 218 219 219 218 217 215 214 212 212 213
355 357 359 359 0 1 1 360 358 356 354 352 348 344 342 340 339 329 304 274 251 239 234 231 226 223 224 225 225 224 223 222 223 222 222 222 221 221 219 218 218 217 217
352 355 356 357 358 359 359 358 357 355 353 352 350 346 342 340 336 328 313 292 267 246 239 237 231 226 226 228 229 229 227 227 225 225 225 225 225 225 223 222 222 221 221
348 350 351 351 352 352 353 354 354 353 351 350 349 345 341 339 333 324 312 300 280 259 248 242 236 233 232 232 233 232 230 231 229 228 228 228 228 227 226 225 225 223 224
341 343 346 346 346 347 349 350 350 349 347 346 345 343 339 337 333 325 312 300 287 270 259 249 244 243 240 237 237 236 235 235 235 232 232 232 230 229 229 228 227 226 226
339 338 340 341 341 343 344 345 345 344 343 343 341 338 335 331 329 323 313 303 292 281 267 258 251 248 246 244 241 239 238 238 239 238 236 234 232 231 230 230 230 229 229
335 334 335 335 335 336 338 338 338 338 337 336 335 333 330 326 323 318 311 303 295 287 277 267 259 255 252 249 247 244 241 240 240 240 238 236 235 234 233 233 232 233 233
330 330 331 331 331 332 333 333 333 332 331 329 328 327 324 322 319 314 307 301 295 288 281 273 265 260 258 254 250 247 246 244 243 241 240 238 237 237 237 237 237 236 236
324 325 326 328 330 330 329 329 329 328 327 325 323 321 319 316 313 310 305 300 295 290 283 276 270 264 262 258 254 251 249 247 245 243 242 241 240 240 240 239 239 238 237
320 320 321 323 325 326 326 327 326 326 324 323 320 317 315 312 309 307 303 297 293 289 284 278 272 268 266 261 258 256 252 249 248 247 245 244 243 242 242 241 241 240 239
317 317 318 319 320 321 323 323 324 323 322 321 319 316 312 309 306 303 300 296 292 288 283 279 275 270 268 265 262 260 256 253 251 249 248 247 246 245 244 242 242 242 241
314 315 316 317 317 318 318 319 319 319 319 318 316 313 310 308 304 301 297 294 291 287 283 280 276 273 270 268 265 262 259 256 253 251 251 250 249 247 246 244 243 243 243
312 313 314 314 315 315 315 315 316 316 315 314 313 312 310 307 304 301 297 292 289 286 283 280 277 274 271 268 266 263 260 257 255 253 251 249 248 247 247 245 244 244 244
311 311 313 313 314 314 314 314 314 313 313 312 312 311 310 307 304 300 295 292 288 284 281 279 277 273 270 267 265 263 260 257 256 255 252 250 248 248 247 246 246 245 244
309 311 312 313 314 313 313 313 313 312 312 311 310 310 309 307 304 299 295 291 289 285 281 279 276 273 269 267 265 263 260 257 255 254 252 250 249 249 248 247 246 246 245
307 309 310 311 312 312 312 311 311 311 311 311 310 309 308 307 304 300 295 292 289 285 281 278 275 272 270 268 266 263 260 258 255 253 252 251 250 250 249 247 247 246 245
307 308 309 310 310 311 311 310 310 310 310 310 309 309 307 306 304 299 296 293 290 286 281 280 277 274 271 268 265 263 260 258 255 253 252 250 249 250 250 249 249 248 247
306 307 308 309 309 310 310 310 309 309 309 309 309 309 307 305 302 299 296 293 291 288 284 281 278 275 272 268 266 264 261 258 255 253 251 251 249 249 248 248 248 248 248
Height
5860 5858 5856 5854 5852 5850 5848 5845 5843 5842 5840 5838 5837 5836 5836 5836 5837 5837 5838 5840 5842 5844 5846 5848 5850 5853 5855 5858 5860 5862 5864 5866 5868 5870 5873 5875 5877 5878 5880 5882 5884 5885 5887
5860 5858 5856 5853 5851 5849 5846 5844 5842 5840 5838 5837 5836 5835 5834 5834 5835 5835 5836 5838 5840 5842 5844 5846 5848 5851 5854 5856 5859 5861 5863 5865 5867 5870 5872 5874 5876 5878 5880 5882 5884 5886 5888
5859 5857 5855 5852 5850 5848 5845 5843 5841 5839 5837 5836 5834 5833 5832 5832 5832 5833 5834 5836 5838 5840 5842 5844 5846 5849 5852 5854 5857 5859 5862 5864 5866 5869 5871 5873 5875 5877 5880 5882 5884 5886 5888
5858 5856 5854 5852 5849 5847 5844 5842 5840 5838 5836 5835 5833 5832 5831 5830 5830 5831 5833 5834 5836 5838 5840 5842 5844 5847 5850 5852 5855 5858 5860 5863 5865 5867 5870 5872 5874 5876 5878 5881 5883 5886 5888
5858 5856 5853 5851 5849 5846 5844 5841 5839 5837 5835 5834 5832 5831 5830 5829 5829 5830 5831 5832 5834 5836 5838 5840 5842 5845 5848 5850 5853 5856 5858 5861 5863 5866 5868 5871 5873 5875 5877 5880 5882 5885 5887
5857 5855 5853 5851 5848 5846 5843 5841 5838 5836 5835 5833 5832 5830 5829 5828 5828 5828 5829 5831 5832 5834 5836 5838 5841 5843 5846 5848 5851 5853 5856 5859 5861 5864 5866 5869 5871 5873 5876 5878 5881 5884 5886
5857 5854 5852 5850 5848 5845 5843 5840 5838 5836 5834 5833 5831 5830 5829 5827 5827 5827 5828 5829 5831 5833 5834 5837 5839 5841 5844 5846 5848 5851 5854 5856 5859 5862 5864 5867 5869 5872 5874 5877 5880 5882 5884
5856 5854 5852 5850 5847 5845 5842 5840 5838 5836 5834 5832 5831 5829 5828 5828 5826 5826 5827 5827 5829 5831 5833 5835 5837 5839 5841 5844 5846 5849 5851 5854 5856 5859 5862 5864 5867 5870 5872 5874 5877 5880 5882
5855 5853 5851 5849 5847 5845 5842 5840 5838 5836 5834 5832 5830 5829 5828 5827 5826 5826 5826 5826 5827 5829 5831 5832 5835 5837 5839 5841 5844 5846 5849 5851 5854 5856 5859 5862 5864 5867 5870 5872 5875 5878 5880
5855 5853 5851 5849 5847 5845 5842 5840 5838 5835 5833 5831 5830 5828 5827 5826 5825 5825 5825 5825 5826 5827 5828 5830 5832 5834 5837 5839 5841 5843 5846 5848 5850 5853 5855 5858 5861 5864 5866 5869 5872 5874 5877
5855 5853 5851 5849 5847 5845 5842 5840 5837 5835 5833 5831 5829 5828 5826 5825 5824 5824 5824 5824 5824 5825 5826 5828 5829 5832 5834 5836 5838 5840 5843 5845 5847 5849 5851 5854 5857 5859 5862 5865 5868 5871 5874
5854 5853 5851 5849 5847 5844 5842 5839 5837 5835 5832 5830 5828 5827 5825 5824 5823 5823 5822 5822 5823 5823 5824 5825 5827 5829 5831 5833 5835 5836 5839 5841 5843 5845 5847 5849 5852 5855 5858 5861 5863 5866 5869
5853 5852 5850 5848 5846 5844 5841 5839 5836 5834 5832 5829 5827 5826 5824 5823 5822 5821 5821 5821 5821 5821 5822 5823 5824 5825 5827 5829 5831 5833 5835 5836 5838 5841 5843 5845 5847 5850 5853 5856 5858 5861 5864
5852 5851 5849 5847 5845 5843 5840 5838 5835 5833 5830 5828 5826 5824 5823 5821 5820 5819 5819 5819 5819 5819 5819 5820 5821 5822 5823 5825 5826 5828 5830 5832 5834 5836 5838 5840 5842 5845 5848 5850 5853 5856 5859
5851 5849 5847 5845 5843 5841 5839 5836 5834 5831 5829 5827 5825 5823 5821 5819 5818 5817 5816 5816 5816 5816 5816 5816 5817 5818 5819 5820 5822 5823 5825 5827 5829 5831 5833 5835 5837 5840 5842 5845 5848 5850 5853
5849 5847 5845 5843 5841 5839 5836 5834 5832 5829 5827 5824 5822 5820 5818 5817 5815 5814 5813 5813 5812 5813 5813 5812 5813 5813 5814 5815 5816 5818 5820 5821 5823 5825 5827 5829 5832 5834 5836 5839 5841 5844 5847
5846 5845 5843 5841 5838 5836 5834 5831 5829 5826 5823 5821 5819 5817 5815 5813 5812 5810 5809 5808 5808 5808 5808 5808 5808 5808 5809 5810 5811 5812 5814 5815 5817 5819 5821 5823 5825 5827 5830 5832 5835 5837 5840
5844 5841 5839 5837 5835 5832 5830 5827 5825 5822 5819 5817 5814 5812 5810 5808 5807 5805 5804 5803 5803 5802 5802 5802 5802 5802 5803 5803 5804 5806 5807 5808 5810 5812 5814 5816 5818 5820 5822 5825 5827 5830 5832
5840 5838 5836 5833 5831 5828 5825 5823 5820 5817 5814 5811 5808 5806 5804 5802 5800 5799 5798 5797 5796 5795 5795 5795 5795 5795 5796 5796 5797 5798 5799 5800 5802 5804 5806 5808 5810 5812 5814 5817 5819 5822 5824
5836 5833 5831 5828 5826 5823 5820 5817 5814 5811 5808 5805 5802 5799 5796 5794 5793 5791 5790 5789 5788 5788 5787 5787 5787 5787 5788 5788 5789 5790 5791 5792 5794 5795 5797 5800 5802 5804 5806 5808 5811 5814 5816
5830 5828 5826 5823 5820 5817 5814 5811 5807 5804 5801 5797 5794 5791 5788 5786 5784 5782 5780 5779 5779 5778 5778 5778 5778 5778 5778 5779 5780 5780 5782 5783 5784 5786 5788 5790 5793 5795 5797 5799 5802 5805 5808
5825 5822 5819 5816 5813 5810 5807 5803 5800 5796 5793 5789 5786 5783 5779 5776 5773 5771 5769 5768 5767 5767 5767 5766 5767 5767 5767 5768 5768 5770 5771 5773 5775 5777 5778 5780 5782 5785 5787 5790 5792 5795 5798
5819 5816 5813 5810 5806 5802 5799 5795 5791 5788 5784 5780 5776 5773 5769 5765 5762 5760 5758 5756 5755 5754 5753 5753 5754 5754 5755 5756 5756 5758 5759 5761 5764 5765 5767 5769 5772 5774 5777 5779 5782 5785 5788
5812 5809 5806 5802 5798 5794 5790 5786 5782 5778 5774 5770 5766 5761 5758 5754 5750 5747 5745 5744 5742 5741 5740 5740 5740 5741 5741 5742 5742 5744 5746 5748 5751 5753 5755 5758 5760 5763 5766 5768 5771 5774 5777
5805 5801 5798 5794 5790 5785 5781 5777 5772 5768 5764 5760 5755 5751 5746 5742 5738 5735 5733 5731 5729 5728 5726 5725 5725 5726 5727 5727 5728 5729 5731 5733 5737 5740 5742 5745 5748 5751 5754 5757 5760 5763 5766
5797 5793 5789 5785 5780 5776 5771 5767 5762 5758 5754 5750 5745 5740 5735 5730 5726 5722 5719 5717 5715 5713 5712 5711 5710 5710 5711 5712 5713 5714 5716 5719 5722 5726 5729 5732 5735 5738 5741 5745 5748 5751 5754